"Pseudo-MPEC" for P11gRiu

Created 2021 Jun 11 16:07:20 UT using Find_Orb

Click here for an explanation of pseudo-MPECs

 
 Astrometry: 
     P11gRiu  C2021 06 08Ed0O2;E1C%6V5y0,,ti[1Wg@7ob=Ya\C6n^6Z\;p8*I#kVwZ7REHF51
     P11gRiu  C2021 06 08?e:75VUH7l._PD?2:j%x9(iIY$`1Ic*i#vXY+QBr`[#*UixyHwlPF51
     P11gRiu  C2021 06 08fdjVOn?47v0o0;Oa7GLY,'H*Zq'M!Hi?8Eo`?)Q;9K.P3E,4qe@SF51
     P11gRiu  C2021 06 08gK3^,`:T)YGONaH19c$952CWO6):W6(\I@BdZwGnxPB9x.Rb2FQEF51
     P11gRiu ^C2021 06 09.61247220 28 54.102+00 51 33.37   ~69Fb 21.54GVNEOCP568
     P11gRiu ^C2021 06 09.61344920 28 54.197+00 51 34.56   ~69Fb 21.74GVNEOCP568
     P11gRiu ^C2021 06 09.61442820 28 54.297+00 51 35.81   ~69Fb 21.44GVNEOCP568
     P11gRiu |C2021 06 11i-V?C93TO;jS\3=pddoaAstrometryUmob/redacted;'click.`807
     P11gRiu |C2021 06 11LwG]pkv*yLED%[1vRO:pkcWWLbfhere.p'4HforNqsHMtHqS]\)i807
     P11gRiu KC2021 06 111w`a=rDe^,5?@]HlVA:XHhZsuU$-f!GBeE4cdMIyli7n5m6)K8q`H21
     P11gRiu KC2021 06 112l$gJeT3vBRu1o9^m*a*ywQiexplanationV'R9xt[I`5OseKK;\H21
     P11gRiu KC2021 06 11.39647120 31 59.55 +01 27 08.3    ~6BAb 21.55GVNEOCPV06
     P11gRiu KC2021 06 11.40013320 31 59.93 +01 27 12.9    ~6BAb 21.42GVNEOCPV06
     P11gRiu KC2021 06 11.40379520 32 00.27 +01 27 17.2    ~6BAb 21.35GVNEOCPV06
     P11gRiu KC2021 06 11.40745520 32 00.64 +01 27 21.4    ~6BAb 21.51GVNEOCPV06

Station data:
(568) Mauna Kea  (N19.826116 W155.472200)  US/Hawaii.
(807) Cerro Tololo Observatory, La Serena  (S30.169136 W70.805900)  Chile.
(F51) Pan-STARRS 1, Haleakala  (N20.707235 W156.255910)  US/Hawaii.
   Observers N. Primak, A. Schultz, S. Watters, J. Thiel, T. Goggia. Measurer
   PS1 Science Consortium. 1.8-m Ritchey-Chrétien + CCD.
(H21) Astronomical Research Observatory, Westfield  (N39.483057 W87.968270)
   US/Illinois. 0.76-m f/3.0 astrograph + CCD.
(V06) Catalina Sky Survey-Kuiper  (N32.416847 W110.732550)  US/Arizona.
   Observers T. A. Pruyne, B. M. Africano, E. J. Christensen, G. A. Farneth,
   D. C. Fuls, A. R. Gibbs, A. D. Grauer, H. Gröller, J. A. Johnson, R. A.
   Kowalski, S. M. Larson, G. J. Leonard, D. Rankin, R. L. Seaman, F. C.
   Shelly. 1.55-m reflector + CCD.

Orbital elements:  P11gRiu
   Perihelion 2021 Jul 30.721922 +/- 1.15367 TT = 17:19:34 (JD 2459426.221922)
Epoch 2021 Jun 11.0 TT = JDT 2459376.5   Earth MOID: 0.4039   AutoNEOCP
M 350.23439931 +/- 1.0457848        (J2000 ecliptic)
n   0.19640432 +/- 0.0177223        Peri.  115.77740 +/- 1.6836752
a   2.93113180 +/- 0.175664         Node   198.02255 +/- 1.0075536
e   0.5265431 +/- 0.0245237         Incl.    8.33463 +/- 0.1352781
P   5.02                   H 20.7   G  0.15   U 10.0  
q 1.38776430 +/- 0.0123846    Q 4.47449930 +/- 0.362329
From 15 observations 2021 June 8-11; mean residual 0".17
Residuals in arcseconds: 
210608 F51  .11-  .25+    210609 568  .02+  .05-    210611 H21  .09+  .09+    
210608 F51  .10+  .00     210609 568  .07+  .03+    210611 V06  .02+  .18-    
210608 F51  .14-  .17-    210611 807  .64-  .07+    210611 V06  .32+  .03+    
210608 F51  .10+  .05-    210611 807  .10+  .10+    210611 V06  .03+  .06-    
210609 568  .05+  .07-    210611 H21  .04-  .12+    210611 V06  .18+  .25-    

Ephemerides (geocentric):
Date (UTC) HH   RA              Dec         delta   r     elong  mag " sig PA
---- -- -- --  -------------   -----------  ------ ------ -----  --- ---- ---
2021 06 11 16  20 32 27.155   +01 32 39.33  .62718 1.4800 127.0 21.9 .152 133
2021 06 11 17  20 32 31.441   +01 33 29.24  .62690 1.4798 127.0 21.9 .159 131
2021 06 11 18  20 32 35.727   +01 34 19.14  .62661 1.4797 127.0 21.9 .166 130
2021 06 11 19  20 32 40.011   +01 35 09.05  .62633 1.4795 127.0 21.9 .172 129
2021 06 11 20  20 32 44.294   +01 35 58.96  .62605 1.4794 127.0 21.9 .180 128
2021 06 11 21  20 32 48.576   +01 36 48.86  .62577 1.4793 127.0 21.9 .187 126
2021 06 11 22  20 32 52.856   +01 37 38.76  .62549 1.4791 127.0 21.9 .195 125
2021 06 11 23  20 32 57.135   +01 38 28.66  .62521 1.4790 127.1 21.9 .202 124
2021 06 12 00  20 33 01.414   +01 39 18.56  .62494 1.4788 127.1 21.9 .210 123
2021 06 12 01  20 33 05.691   +01 40 08.45  .62466 1.4787 127.1 21.9 .219 123
2021 06 12 02  20 33 09.966   +01 40 58.35  .62438 1.4785 127.1 21.9 .227 122
2021 06 12 03  20 33 14.241   +01 41 48.24  .62410 1.4784 127.1 21.9 .235 121
2021 06 12 04  20 33 18.514   +01 42 38.13  .62382 1.4782 127.1 21.9 .244 120
2021 06 12 05  20 33 22.786   +01 43 28.01  .62354 1.4781 127.1 21.9 .253 120
2021 06 12 06  20 33 27.057   +01 44 17.90  .62326 1.4779 127.2 21.9 .262 119
2021 06 12 07  20 33 31.326   +01 45 07.78  .62299 1.4778 127.2 21.9 .271 118
2021 06 12 08  20 33 35.595   +01 45 57.66  .62271 1.4776 127.2 21.9 .281 118
2021 06 12 09  20 33 39.862   +01 46 47.54  .62243 1.4775 127.2 21.9 .291 117
2021 06 12 10  20 33 44.128   +01 47 37.41  .62215 1.4773 127.2 21.9 .300 117
2021 06 12 11  20 33 48.392   +01 48 27.28  .62188 1.4772 127.2 21.9 .310 116
2021 06 12 12  20 33 52.656   +01 49 17.15  .62160 1.4770 127.2 21.9 .320 116
2021 06 12 13  20 33 56.918   +01 50 07.02  .62132 1.4769 127.2 21.9 .331 115
2021 06 12 14  20 34 01.179   +01 50 56.89  .62105 1.4767 127.3 21.9 .341 115
2021 06 12 15  20 34 05.439   +01 51 46.75  .62077 1.4766 127.3 21.9 .352 115
2021 06 12 16  20 34 09.697   +01 52 36.61  .62049 1.4765 127.3 21.9 .362 114
2021 06 12 17  20 34 13.955   +01 53 26.46  .62022 1.4763 127.3 21.9 .373 114
2021 06 12 18  20 34 18.211   +01 54 16.32  .61994 1.4762 127.3 21.9 .384 113
2021 06 12 19  20 34 22.466   +01 55 06.17  .61967 1.4760 127.3 21.9 .396 113
2021 06 12 20  20 34 26.719   +01 55 56.01  .61939 1.4759 127.3 21.9 .407 113
2021 06 12 21  20 34 30.972   +01 56 45.86  .61912 1.4757 127.4 21.9 .419 113
2021 06 12 22  20 34 35.223   +01 57 35.70  .61884 1.4756 127.4 21.9 .430 112
2021 06 12 23  20 34 39.473   +01 58 25.53  .61857 1.4754 127.4 21.9 .442 112
2021 06 13 00  20 34 43.722   +01 59 15.37  .61829 1.4753 127.4 21.9 .454 112
2021 06 13 01  20 34 47.969   +02 00 05.20  .61802 1.4751 127.4 21.9 .466 112
2021 06 13 02  20 34 52.216   +02 00 55.03  .61774 1.4750 127.4 21.9 .478 111
2021 06 13 03  20 34 56.461   +02 01 44.85  .61747 1.4749 127.4 21.9 .491 111
2021 06 13 04  20 35 00.704   +02 02 34.67  .61720 1.4747 127.5 21.9 .503 111
2021 06 13 05  20 35 04.947   +02 03 24.49  .61692 1.4746 127.5 21.9 .516 111
2021 06 13 06  20 35 09.188   +02 04 14.30  .61665 1.4744 127.5 21.9 .529 111
2021 06 13 07  20 35 13.428   +02 05 04.11  .61638 1.4743 127.5 21.9 .542 110
2021 06 13 08  20 35 17.667   +02 05 53.92  .61610 1.4741 127.5 21.9 .555 110
2021 06 13 09  20 35 21.905   +02 06 43.72  .61583 1.4740 127.5 21.9 .568 110
2021 06 13 10  20 35 26.141   +02 07 33.52  .61556 1.4738 127.5 21.9 .582 110
2021 06 13 11  20 35 30.376   +02 08 23.31  .61528 1.4737 127.5 21.9 .595 110
2021 06 13 12  20 35 34.610   +02 09 13.10  .61501 1.4736 127.6 21.9 .609 110
2021 06 13 13  20 35 38.843   +02 10 02.89  .61474 1.4734 127.6 21.9 .623 109
2021 06 13 14  20 35 43.074   +02 10 52.67  .61447 1.4733 127.6 21.9 .637 109
2021 06 13 15  20 35 47.305   +02 11 42.45  .61420 1.4731 127.6 21.9 .651 109